Lakeville, MN

1:54 AM CST on December 08, 2016 (GMT -0600)
Airlake

Weather History for KLVN - December, 2012

Change the Weather History Date:

Tuesday, December 4, 2012

  Actual Average Record
Temperature  
Mean Temperature 28 °F -  
Max Temperature 41 °F 29 °F 56 °F (1962)
Min Temperature 15 °F 12 °F -14 °F (1991)
Degree Days  
Heating Degree Days 37    
Moisture  
Dew Point 18 °F    
Average Humidity 65    
Maximum Humidity 86    
Minimum Humidity 52    
Precipitation  
Precipitation 0.00 in - - ()
Sea Level Pressure  
Sea Level Pressure 30.17 in    
Wind  
Wind Speed 10 mph (WNW)    
Max Wind Speed 21 mph    
Max Gust Speed 23 mph    
Visibility 10 miles    
Events      
Averages and records for this station are not official NWS values.
T = Trace of Precipitation, MM = Missing Value Source: NWS Daily Summary

Daily Weather History Graph

Daily Weather History Graph

Search for Another Location

Airport or City:

Trip Planner

Search our weather history database for the weather conditions in past years. The results will help you decide how hot, cold, wet, or windy it might be!

Date:

Astronomy

Dec. 04, 2012 Rise Set
Actual Time 7:33 AM CST 4:33 PM CST
Civil Twilight 7:00 AM CST 5:06 PM CST
Nautical Twilight 6:23 AM CST 5:42 PM CST
Astronomical Twilight 5:48 AM CST 6:17 PM CST
Moon 10:30 PM CST (12/4) 11:19 AM CST (12/4)
Length of Visible Light 10h 05m
Length of Day
8h 59m
Waning Gibbous, 69% of the Moon is Illuminated
Dec 4
Waning Gibbous
Dec 6
Last Quarter
Dec 13
New
Dec 19
First Quarter
Dec 28
Full

Hourly Weather History & Observations

Time (CST) Temp. Windchill Dew Point Humidity Pressure Visibility Wind Dir Wind Speed Gust Speed Precip Events Conditions
12:13 AM 39.2 °F 33.6 °F 26.6 °F 61% 29.93 in 10.0 mi West 8.1 mph - N/A   Clear
12:32 AM 41.0 °F 35.2 °F 26.6 °F 57% 29.93 in 10.0 mi West 9.2 mph - N/A   Clear
12:53 AM 39.2 °F 32.0 °F 26.6 °F 61% 29.93 in 10.0 mi West 11.5 mph - N/A   Clear
1:13 AM 39.2 °F 33.6 °F 26.6 °F 61% 29.94 in 10.0 mi West 8.1 mph - N/A   Clear
1:32 AM 39.2 °F 33.0 °F 26.6 °F 61% 29.95 in 10.0 mi West 9.2 mph 16.1 mph N/A   Clear
1:53 AM 39.2 °F 32.5 °F 26.6 °F 61% 29.95 in 10.0 mi WSW 10.4 mph - N/A   Clear
2:13 AM 37.4 °F 30.3 °F 26.6 °F 65% 29.96 in 10.0 mi WSW 10.4 mph - N/A   Clear
2:53 AM 37.4 °F 29.8 °F 26.6 °F 65% 29.97 in 10.0 mi West 11.5 mph - N/A   Clear
3:13 AM 37.4 °F 29.8 °F 26.6 °F 65% 29.97 in 10.0 mi West 11.5 mph 19.6 mph N/A   Clear
3:32 AM 37.4 °F 28.9 °F 26.6 °F 65% 29.97 in 10.0 mi West 13.8 mph 19.6 mph N/A   Clear
4:13 AM 35.6 °F 28.6 °F 26.6 °F 70% 29.98 in 10.0 mi West 9.2 mph - N/A   Clear
4:32 AM 33.8 °F 25.8 °F 24.8 °F 70% 29.99 in 10.0 mi West 10.4 mph - N/A   Clear
4:53 AM 33.8 °F 26.4 °F 24.8 °F 70% 30.01 in 10.0 mi West 9.2 mph - N/A   Clear
5:13 AM 30.2 °F 21.3 °F 24.8 °F 80% 30.01 in 10.0 mi West 10.4 mph - N/A   Clear
5:32 AM 30.2 °F 21.3 °F 24.8 °F 80% 30.02 in 10.0 mi West 10.4 mph - N/A   Clear
5:53 AM 30.2 °F 21.3 °F 24.8 °F 80% 30.03 in 10.0 mi West 10.4 mph - N/A   Clear
6:13 AM 30.2 °F 21.9 °F 24.8 °F 80% 30.04 in 10.0 mi West 9.2 mph - N/A   Clear
6:32 AM 28.4 °F 19.1 °F 24.8 °F 86% 30.05 in 10.0 mi West 10.4 mph - N/A   Clear
6:53 AM 30.2 °F 21.3 °F 23.0 °F 75% 30.06 in 10.0 mi West 10.4 mph 18.4 mph N/A   Clear
7:13 AM 28.4 °F 21.2 °F 23.0 °F 80% 30.07 in 10.0 mi West 6.9 mph - N/A   Clear
7:32 AM 28.4 °F 19.1 °F 21.2 °F 74% 30.08 in 10.0 mi West 10.4 mph - N/A   Clear
7:53 AM 28.4 °F 19.7 °F 21.2 °F 74% 30.09 in 10.0 mi West 9.2 mph - N/A   Clear
8:13 AM 28.4 °F 21.2 °F 19.4 °F 69% 30.10 in 10.0 mi West 6.9 mph - N/A   Clear
8:32 AM 28.4 °F 19.1 °F 19.4 °F 69% 30.11 in 10.0 mi West 10.4 mph - N/A   Clear
8:53 AM 28.4 °F 18.5 °F 19.4 °F 69% 30.12 in 10.0 mi West 11.5 mph - N/A   Clear
9:13 AM 28.4 °F 18.0 °F 17.6 °F 64% 30.14 in 10.0 mi West 12.7 mph - N/A   Clear
9:32 AM 30.2 °F 20.8 °F 17.6 °F 60% 30.15 in 10.0 mi West 11.5 mph - N/A   Clear
9:53 AM 30.2 °F 20.2 °F 17.6 °F 60% 30.16 in 10.0 mi WNW 12.7 mph - N/A   Clear
10:12 AM 30.2 °F 19.3 °F 17.6 °F 60% 30.16 in 10.0 mi WNW 15.0 mph - N/A   Clear
10:32 AM 30.2 °F 19.8 °F 17.6 °F 60% 30.17 in 10.0 mi WNW 13.8 mph - N/A   Clear
10:53 AM 30.2 °F 19.3 °F 17.6 °F 60% 30.17 in 10.0 mi West 15.0 mph - N/A   Clear
11:12 AM 32.0 °F 21.2 °F 17.6 °F 55% 30.17 in 10.0 mi WNW 16.1 mph - N/A   Clear
11:33 AM 32.0 °F 22.1 °F 17.6 °F 55% 30.17 in 10.0 mi WNW 13.8 mph - N/A   Clear
11:53 AM 32.0 °F 20.8 °F 17.6 °F 55% 30.16 in 10.0 mi WNW 17.3 mph 23.0 mph N/A   Clear
12:12 PM 32.0 °F 22.1 °F 19.4 °F 60% 30.17 in 10.0 mi WNW 13.8 mph 19.6 mph N/A   Clear
12:33 PM 32.0 °F 19.8 °F 17.6 °F 55% 30.17 in 10.0 mi WNW 20.7 mph - N/A   Clear
12:53 PM 32.0 °F 20.8 °F 17.6 °F 55% 30.18 in 10.0 mi WNW 17.3 mph 23.0 mph N/A   Clear
1:12 PM 32.0 °F 21.6 °F 17.6 °F 55% 30.19 in 10.0 mi West 15.0 mph - N/A   Clear
1:33 PM 33.8 °F 23.9 °F 19.4 °F 56% 30.19 in 10.0 mi West 15.0 mph 19.6 mph N/A   Clear
1:53 PM 33.8 °F 23.9 °F 19.4 °F 56% 30.20 in 10.0 mi West 15.0 mph - N/A   Clear
2:12 PM 33.8 °F 23.9 °F 17.6 °F 52% 30.20 in 10.0 mi WNW 15.0 mph - N/A   Clear
2:33 PM 32.0 °F 23.0 °F 17.6 °F 55% 30.20 in 10.0 mi NW 11.5 mph - N/A   Clear
2:53 PM 32.0 °F 22.1 °F 17.6 °F 55% 30.21 in 10.0 mi NW 13.8 mph - N/A   Clear
3:12 PM 32.0 °F 22.5 °F 17.6 °F 55% 30.22 in 10.0 mi NW 12.7 mph - N/A   Clear
3:33 PM 30.2 °F 18.9 °F 17.6 °F 60% 30.23 in 10.0 mi NW 16.1 mph 19.6 mph N/A   Clear
3:53 PM 28.4 °F 18.5 °F 15.8 °F 59% 30.24 in 10.0 mi NW 11.5 mph - N/A   Clear
4:12 PM 28.4 °F 19.7 °F 15.8 °F 59% 30.25 in 10.0 mi WNW 9.2 mph - N/A   Clear
4:53 PM 26.6 °F 15.7 °F 15.8 °F 64% 30.27 in 10.0 mi NW 12.7 mph 16.1 mph N/A   Clear
5:12 PM 26.6 °F 16.8 °F 14.0 °F 59% 30.27 in 10.0 mi NW 10.4 mph - N/A   Clear
5:33 PM 24.8 °F 16.9 °F 14.0 °F 64% 30.28 in 10.0 mi WNW 6.9 mph - N/A   Clear
5:53 PM 23.0 °F 18.4 °F 14.0 °F 68% 30.29 in 10.0 mi WNW 3.5 mph - N/A   Clear
6:12 PM 21.2 °F 16.4 °F 12.2 °F 68% 30.29 in 10.0 mi NNW 3.5 mph - N/A   Clear
6:33 PM 21.2 °F 14.9 °F 12.2 °F 68% 30.30 in 10.0 mi NW 4.6 mph - N/A   Clear
6:53 PM 19.4 °F 12.8 °F 12.2 °F 74% 30.30 in 10.0 mi NW 4.6 mph - N/A   Clear
7:12 PM 21.2 °F 14.9 °F 12.2 °F 68% 30.30 in 10.0 mi NW 4.6 mph - N/A   Clear
7:33 PM 21.2 °F 14.9 °F 12.2 °F 68% 30.32 in 10.0 mi WNW 4.6 mph - N/A   Clear
7:53 PM 21.2 °F 16.4 °F 12.2 °F 68% 30.32 in 10.0 mi WNW 3.5 mph - N/A   Clear
8:12 PM 19.4 °F 12.8 °F 12.2 °F 74% 30.32 in 10.0 mi NW 4.6 mph - N/A   Clear
8:33 PM 21.2 °F 14.9 °F 12.2 °F 68% 30.32 in 10.0 mi North 4.6 mph - N/A   Clear
8:53 PM 21.2 °F 13.6 °F 12.2 °F 68% 30.33 in 10.0 mi North 5.8 mph - N/A   Clear
9:12 PM 21.2 °F 13.6 °F 12.2 °F 68% 30.34 in 10.0 mi North 5.8 mph - N/A   Clear
9:33 PM 21.2 °F 13.6 °F 12.2 °F 68% 30.35 in 10.0 mi North 5.8 mph - N/A   Clear
9:53 PM 21.2 °F 16.4 °F 10.4 °F 63% 30.34 in 10.0 mi North 3.5 mph - N/A   Clear
10:12 PM 21.2 °F - 10.4 °F 63% 30.35 in 10.0 mi Calm Calm - N/A   Clear
10:33 PM 19.4 °F - 10.4 °F 68% 30.36 in 10.0 mi Calm Calm - N/A   Clear
10:53 PM 19.4 °F 14.3 °F 10.4 °F 68% 30.38 in 10.0 mi WNW 3.5 mph - N/A   Clear
11:12 PM 19.4 °F - 10.4 °F 68% 30.38 in 10.0 mi Calm Calm - N/A   Clear
11:33 PM 15.8 °F - 10.4 °F 79% 30.39 in 10.0 mi Calm Calm - N/A   Clear
11:53 PM 15.8 °F - 10.4 °F 79% 30.39 in 10.0 mi Calm Calm - N/A   Clear